Powrót do katalogu

DELTA 1 DEB

AktywnySSO
NORAD 7139·DEBRIS·🇺🇸 United States

Wystrzelony Nov 6, 1973 z Vandenberg Space Force Base

Loading…

Następne Przeloty (najbliższe 24 godziny)

TLE

ŚwieżeSource: Space-Track

Epoka: Sep 14, 2026, 10:09 UTC

1 07139U 73086DD  26257.42312178  .00000075  00000-0  92749-3 0  9990
2 07139 102.4200  69.1217 0062254  73.9807 314.0385 12.37920966376319

Śledź DELTA 1 DEB w czasie rzeczywistym z AllMySat

Download on the App Store